www.pogodaiklimat.ru

Погода и климат >> Архив погоды >> Россия >> Приморский край >> Преображение


АРХИВ ПОГОДЫ в Преображении

Время (UTC), дата Ветер
(напр.,м/с)
 
Видим.   Явления Облачность Т
(С)
Тd
(С)
f
(%)
Тe
(С)
Тes
(С)
Комфортность P
(гПа)
Po
(гПа)
Тmin
(С)
Tmax
(С)
R
(мм)
R24
(мм)
S
(см)
12 17.01 СВ 1
{13}
50 км ясно -14.1 -30.1 24 -17 -17 1015.5 1009.7
15 17.01 С 2 50 км ясно -14.1 -30.5 24 -19 -19 1016.4 1010.7
18 17.01 СЗ 2 50 км ясно -12.5 -26.4 30 -17 -17 1016.6 1011.0
21 17.01 штиль 0 50 км ясно -12.1 -26.1 30 -12 -12 1017.8 1012.1 -15.0
00 18.01 штиль 0 50 км ясно -9.6 -23.0 33 -10 -8 1019.2 1013.6
03 18.01 Ю 1 50 км ясно -2.5 -24.0 17 -3 +3 1018.7 1013.2
06 18.01 З 2 50 км ясно -1.0 -21.6 19 -3 -2 1018.3 1012.9
09 18.01 штиль 0 50 км ясно -5.4 -25.4 19 -5 -5 1021.2 1015.7 -0.5
12 18.01 С 1 50 км ясно -6.6 -25.8 20 -8 -8 1021.8 1016.2
15 18.01 СЗ 1
{10}
50 км ясно -6.1 -23.4 24 -8 -8 1021.5 1015.9
18 18.01 штиль 0 50 км ясно -6.9 -22.1 29 -7 -7 1021.4 1015.8
21 18.01 З 1 50 км ясно -6.8 -23.6 25 -8 -8 1020.7 1015.1 -9.4
00 19.01 С 4 50 км ясно -6.7 -24.7 22 -12 -11 1020.5 1014.9
03 19.01 Ю 2 50 км ясно +0.4 -23.8 14 -2 +3 1019.4 1014.0
06 19.01 ЮЗ 2 50 км 3/0
[Ci fib]
+1.9 -20.9 17 0 +2 1017.4 1012.1
09 19.01 штиль 0 50 км 4/0
[Ci fib]
-1.6 -18.1 27 -2 -2 1016.7 1011.3 +2.9
12 19.01 З 2 50 км 10/0
[Ci fib]
-3.0 -21.8 22 -6 -6 1016.7 1011.2
15 19.01 С 1 50 км 10/0
[Cs]
-5.7 -20.8 29 -7 -7 1015.4 1009.9
18 19.01 С 2 50 км 10/0
[Cs]
-5.2 -20.3 29 -9 -9 1013.4 1007.9
21 19.01 С 2 50 км 9/0
[Ci fib]
-5.2 -19.6 31 -9 -9 1011.7 1006.2 -6.9
00 20.01 СЗ 2 50 км ясно -5.6 -20.8 29 -9 -8 1011.6 1006.1
03 20.01 З 2-11
{13}
50 км 1/1 600 м
[Cu hum]
-3.9 -22.2 23 -7 -3 1009.7 1004.2
06 20.01 С 2
{12}
50 км 4/4 600 м
[Cu hum]
-4.9 -22.2 24 -8 -7 1009.5 1004.0
09 20.01 З 2-13
{14}
50 км ясно -8.6 -23.3 29 -13 -13 1012.0 1006.4 -3.5
12 20.01 З 1
{13}
50 км ясно -9.4 -22.6 33 -11 -11 1013.0 1007.4
15 20.01 штиль 0
{13}
50 км ясно -10.3 -24.9 29 -10 -10 1013.2 1007.6
18 20.01 штиль 0 50 км ясно -10.4 -25.8 27 -10 -10 1012.7 1007.1
21 20.01 ЮЗ 1 50 км ясно -11.1 -22.5 38 -13 -13 1012.0 1006.3 -12.1
00 21.01 С 2 50 км ясно -10.2 -23.9 32 -14 -13 1012.3 1006.7
03 21.01 З 3
{10}
50 км 3/0
[Cc]
-5.2 -22.3 25 -10 -6 1010.5 1005.1
06 21.01 ЮЗ 2
{12}
50 км 4/0
[Cc]
-2.9 -26.1 15 -6 -4 1009.0 1003.7
09 21.01 ЮВ 1 50 км 4/0
[Cc]
-5.0 -25.1 19 -6 -6 1010.3 1004.9 -2.7
12 21.01 З 1 50 км ясно -5.9 -26.2 18 -7 -7 1011.9 1006.5
15 21.01 З 1 50 км ясно -7.0 -25.3 22 -9 -9 1011.8 1006.4
18 21.01 СЗ 1 50 км ясно -11.2 -26.1 28 -13 -13 1012.1 1006.5
21 21.01 СЗ 2 50 км ясно -8.5 -27.3 20 -12 -12 1012.3 1006.8 -11.6
00 22.01 З 1 50 км ясно -8.2 -25.7 23 -10 -8 1012.9 1007.5
03 22.01 ЮЗ 3 50 км 6/0
[Ci fib]
-1.8 -17.4 29 -6 -2 1011.9 1006.6
06 22.01 ЮЗ 1
{10}
50 км 1/0
[Ci fib]
+1.0 -16.1 27 0 +2 1009.6 1004.3
09 22.01 ЮЗ 2 50 км ясно -2.1 -16.9 31 -5 -5 1011.2 1005.9 +1.6
12 22.01 штиль 0 50 км 10/0
[Cs]
-1.8 -11.6 47 -2 -2 1011.2 1005.9
15 22.01 СЗ 1 50 км 10/0
[Ac und]
-1.2 -7.1 64 -3 -3 1009.9 1004.6
18 22.01 З 2 50 км 5/0
[Cs]
-1.0 -10.6 48 -4 -4 1008.4 1003.1
21 22.01 СЗ 1 50 км 3/0
[Cs]
-3.4 -17.2 33 -5 -5 1008.9 1003.5 -3.4
00 23.01 В 1 50 км 1/0
[Ci fib]
-3.8 -17.0 35 -5 -3 1009.7 1004.4 -5.6
03 23.01 С 4 50 км ясно -2.6 -18.5 28 -8 -4 1009.7 1004.4
06 23.01 СЗ 3-11
{13}
50 км 3/0
[Cs]
-3.7 -20.6 26 -8 -7 1011.4 1006.0
09 23.01 С 3
{16}
50 км 3/0
[Cs]
-6.1 -20.5 31 -11 -11 1014.5 1009.1 -2.0
12 23.01 З 2 50 км ясно -7.2 -21.8 30 -11 -11 1015.9 1010.5
15 23.01 ЮВ 1
{14}
50 км 4/0
[Cs]
-8.7 -22.3 32 -11 -11 1016.9 1011.4
18 23.01 З 2
{12}
50 км ясно -8.8 -22.1 33 -13 -13 1017.4 1011.9
21 23.01 З 1 50 км ясно -9.2 -23.2 31 -11 -11 1017.7 1012.2 -9.3
00 24.01 С 4
{11}
50 км ясно -7.8 -23.4 27 -14 -13 1018.5 1013.0 -9.5
03 24.01 С 3 50 км ясно -3.3 -22.6 21 -7 -3 1017.9 1012.5
06 24.01 С 3 50 км ясно -1.8 -22.3 19 -6 -4 1017.8 1012.5
09 24.01 С 1 50 км ясно -4.4 -20.4 27 -6 -6 1019.8 1014.4 -1.7

 

Местоположение метеостанции Преображение (Приморский край, Россия): широта 42.90 долгота 133.90 высота над уровнем моря 43 м.

В архиве по умолчанию представлена погода в Преображении за последнюю неделю. Архивные данные за месяц целиком и за предыдущие месяцы, начиная с января 2011 года, Вы можете получить, выбрав интересующий диапазон дат из раскрывающегося списка и нажав кнопку "Ввод!".


*Определитесь, кто Вы:
робот инопланетянин человек

Внимание! Время в таблицах - всемирное. Для получения местного времени необходимо прибавить поправку, которая равна 10 ч.

Смотрите также архив погоды в соседних городах и на ближайших метеорологических станциях:

Погода в Лазо (Приморский край, Россия) (56 км)
Погода в Лучегорске (Приморский край, Россия) (75 км)
Погода в Партизанске (Приморский край, Россия) (78 км)
Погода в Находке (Приморский край, Россия) (90 км)
Погода в Многоудобном (Приморский край, Россия) (132 км)
Погода в Чугуевке (Приморский край, Россия) (139 км)
Погода в Анучино (Приморский край, Россия) (139 км)
Погода в Ольге (Приморский край, Россия) (148 км)
Погода в Дальнегорске (Приморский край, Россия) (153 км)
Погода на Мысе Назимова (Приморский край, Россия) (164 км)

Пояснения к столбцам:

Ветер - указаны скорость ветра в м/с - средняя за 10 мин, порывы в срок и между сроками (в фигурных скобках) и направление, откуда дует ветер: С - северный, СВ - северо-восточный, В - восточный, ЮВ - юго-восточный, Ю - южный, ЮЗ - юго-западный, З - западный, СЗ - северо-западный.
Видимость - горизонтальная дальность видимости в метрах или километрах. При видимости от 1 до 10 км при отсутствии осадков обычно наблюдается дымка, при ухудшении видимости до 1 км и менее - туман. В сухую погоду видимость может ухудшаться дымом, пылью или мглою.
Явления - указаны атмосферные явления, наблюдавшиеся в срок или в последний час перед сроком; фигурными скобками обозначены явления, наблюдавшиеся между сроками (за 1-3 часа до срока); квадратными скобками обозначены град или гололедные отложения с указанием их диаметра в мм.
Облачность - указаны через наклонную черту общая и нижняя облачность в баллах и высота нижней границы облаков в метрах; квадратными скобками обозначены формы облаков: Ci - перистые, Cs - перисто-слоистые, Cc - перисто-кучевые, Ac - высококучевые, As - высокослоистые, Sc - слоисто-кучевые, Ns - слоисто-дождевые, Cu - кучевые, Cb - кучево-дождевые. Подробнее классификацию облаков см. в Атласе облаков (PDF).
T - Температура воздуха - температура, измеренная на высоте 2 м над землей.
Td - Температура точки росы - температура, при понижении до которой содержащийся в воздухе водяной пар достигнет насыщения.
f - Относительная влажность воздуха - влажноcть воздуха, измеренная на высоте 2 м над землей.
Te - Эффективная температура - температура, которую ощущает одетый по сезону человек в тени. Характеристика душности погоды. При расчете учитывается влияние влажности воздуха и скорости ветра на теплоощущения человека.
Tes - Эффективная температура на солнце - температура, которую ощущает человек, с поправкой на солнечный нагрев. Характеристика знойности погоды. Зависит от высоты солнца над горизонтом, облачности и скорости ветра. Ночью, в пасмурную погоду, а также при ветре 12 м/с и более поправка равна нулю.
P - Атмосферное давление - приведенное к уровню моря атмосферное давление.
Po - Атмосферное давление - измеренное на уровне метеостанции атмосферное давление.
Tmin - Минимальная температура - минимум температуры воздуха на высоте 2 м над землей.
Tmax - Максимальная температура - максимум температуры воздуха на высоте 2 м над землей.
R - Количество осадков - Количество выпавших осадков за период времени, мм. При наведении курсора мыши на число - период времени, за который выпало указанное количество осадков.
R24 - Количество осадков - Количество выпавших осадков за 24 часа, мм.
S - Снежный покров - Высота снежного покрова, см. При наведении курсора мыши на число - состояние снежного покрова и степень покрытия местности в баллах.